Regional Weather Roundup
Issued by NWS Charleston, WV

Home | Current Version | Previous Version | Graphics & Text | Print | Product List | Glossary On
Versions: 1 2 3 4 5 6 7 8 9 10 11 12 13 14 15 16 17 18 19 20 21 22 23 24 25 26 27 28 29 30 31 32 33 34 35 36 37 38 39 40 41 42 43 44 45 46 47 48 49 50
788
ASUS41 KRLX 180310
RWRRLX
West Virginia Regional Weather Roundup
National Weather Service Charleston WV
1000 PM EST SAT FEB 17 2018

Note: "fair" indicates few or no clouds below 12,000 feet with no
significant weather and/or obstructions to visibility.

WVZ003-180400-
Northern Panhandle of West Virginia

CITY           SKY/WX    TMP DP  RH WIND       PRES   REMARKS
WHEELING       LGT SNOW  32  30  92 W6        30.01S VSB 1
$$

WVZ009-180400-
Northwest West Virginia

CITY           SKY/WX    TMP DP  RH WIND       PRES   REMARKS
PARKERSBURG    LGT RAIN  33  32  96 SW5       30.08R FOG
$$

WVZ006-180400-
Western West Virginia

CITY           SKY/WX    TMP DP  RH WIND       PRES   REMARKS
HUNTINGTON     FOG       39  37  92 SW7       30.10R VSB 3/4
$$

WVZ015-180400-
West Central West Virginia

CITY           SKY/WX    TMP DP  RH WIND       PRES   REMARKS
CHARLESTON     DRIZZLE   40  39  97 SW7       30.08R
$$

WVZ022-031-180400-
North Central West Virginia

CITY           SKY/WX    TMP DP  RH WIND       PRES   REMARKS
CLARKSBURG     CLOUDY    34  32  92 S3        30.03S FOG
MORGANTOWN     FOG       32  31  96 S3        30.02S VSB 1/2
$$

WVZ025-035-042-045-180400-
Southern West Virginia

CITY           SKY/WX    TMP DP  RH WIND       PRES   REMARKS
BECKLEY        CLOUDY    39  38  96 W10       30.05R
LOGAN          CLOUDY    43  41  93 W15G24    30.08R
BLUEFIELD      CLOUDY    43  40  89 W20G30    30.06R
LEWISBURG      CLOUDY    33  32  97 SW5       30.05R FOG
$$

WVZ047-180400-
Northern Mountains of West Virginia

CITY           SKY/WX    TMP DP  RH WIND       PRES   REMARKS
ELKINS         CLOUDY    36  33  89 VRB3      29.99R
$$

WVZ052-180400-
Eastern Panhandle of West Virginia

CITY           SKY/WX    TMP DP  RH WIND       PRES   REMARKS
MARTINSBURG    CLOUDY    32  31  96 CALM      30.03F
PETERSBURG       N/A     33  32  98 CALM      29.98F
$$




USA.gov is the U.S. government's official web portal to all federal, state and local government web resources and services.